Weather History for Orr, MN

Change the Weather History Date:

Thursday, March 27, 2014

  Actual Average Record
Temperature  
Mean Temperature 24 °F -  
Max Temperature 30 °F 37 °F 62 °F (2012)
Min Temperature 17 °F 18 °F -2 °F (2011)
Degree Days  
Heating Degree Days 40    
Moisture  
Dew Point 17 °F    
Average Humidity 73    
Maximum Humidity 86    
Minimum Humidity 59    
Precipitation  
Precipitation 0.00 in - - ()
Sea Level Pressure  
Sea Level Pressure 29.64 in    
Wind  
Wind Speed 2 mph (NNE)    
Max Wind Speed 6 mph    
Max Gust Speed -    
Visibility 10 miles    
Events Snow    
Averages and records for this station are not official NWS values.
T = Trace of Precipitation, MM = Missing Value Source: NWS Daily Summary

Daily Weather History Graph

Daily Weather History Graph

Search for Another Location

Airport:

Trip Planner

Search our weather history database for the weather conditions in past years. The results will help you decide how hot, cold, wet, or windy it might be!

Date:

Astronomy

Mar. 27, 2014 Rise Set
Actual Time 6:59 AM CDT 7:34 PM CDT
Civil Twilight 6:28 AM CDT 8:05 PM CDT
Nautical Twilight 5:51 AM CDT 8:42 PM CDT
Astronomical Twilight 5:13 AM CDT 9:21 PM CDT
Moon 5:06 AM CDT (3/27) 4:09 PM CDT (3/27)
Length of Visible Light 13h 36m
Length of Day
12h 34m
Waning Crescent, 13% of the Moon is Illuminated
Mar 27
Waning Crescent
Mar 30
New
Apr 7
First Quarter
Apr 15
Full
Apr 22
Last Quarter

Hourly Weather History & Observations

Time (CDT) Temp. Windchill Dew Point Humidity Pressure Visibility Wind Dir Wind Speed Gust Speed Precip Events Conditions
12:13 AM 21.2 °F 16.4 °F 12.2 °F 68% 29.64 in 10.0 mi East 3.5 mph - N/A   Overcast
12:33 AM 21.2 °F 16.4 °F 12.2 °F 68% 29.63 in 10.0 mi East 3.5 mph - N/A   Overcast
12:53 AM 21.2 °F - 12.2 °F 68% 29.63 in 10.0 mi Calm Calm - N/A   Overcast
1:13 AM 21.2 °F - 12.2 °F 68% 29.62 in 10.0 mi Calm Calm - N/A   Overcast
1:33 AM 21.2 °F 16.4 °F 12.2 °F 68% 29.62 in 10.0 mi East 3.5 mph - N/A   Overcast
1:53 AM 21.2 °F - 12.2 °F 68% 29.60 in 10.0 mi Calm Calm - N/A   Overcast
2:13 AM 21.2 °F 16.4 °F 14.0 °F 74% 29.60 in 10.0 mi East 3.5 mph - N/A   Overcast
2:33 AM 21.2 °F 16.4 °F 14.0 °F 74% 29.60 in 10.0 mi East 3.5 mph - N/A   Overcast
2:53 AM 21.2 °F - 14.0 °F 74% 29.59 in 10.0 mi Calm Calm - N/A   Overcast
3:13 AM 21.2 °F - 14.0 °F 74% 29.59 in 10.0 mi Calm Calm - N/A   Overcast
3:33 AM 21.2 °F 16.4 °F 14.0 °F 74% 29.58 in 7.0 mi East 3.5 mph - N/A Snow Light Snow
3:53 AM 21.2 °F - 15.8 °F 80% 29.58 in 7.0 mi Calm Calm - N/A Snow Light Snow
4:13 AM 21.2 °F - 15.8 °F 80% 29.57 in 7.0 mi Calm Calm - N/A   Overcast
4:33 AM 21.2 °F - 15.8 °F 80% 29.57 in 10.0 mi Calm Calm - N/A   Overcast
4:53 AM 21.2 °F - 15.8 °F 80% 29.58 in 10.0 mi Calm Calm - N/A   Overcast
5:13 AM 21.2 °F - 15.8 °F 80% 29.57 in 7.0 mi Calm Calm - N/A   Overcast
5:33 AM 21.2 °F - 17.6 °F 86% 29.58 in 10.0 mi Calm Calm - N/A   Overcast
5:53 AM 21.2 °F - 17.6 °F 86% 29.58 in 10.0 mi Calm Calm - N/A   Overcast
6:13 AM 21.2 °F - 17.6 °F 86% 29.58 in 10.0 mi Calm Calm - N/A   Overcast
6:33 AM 21.2 °F - 17.6 °F 86% 29.58 in 10.0 mi Calm Calm - N/A   Overcast
6:53 AM 21.2 °F - 17.6 °F 86% 29.58 in 10.0 mi Calm Calm - N/A   Overcast
7:13 AM 21.2 °F - 17.6 °F 86% 29.59 in 10.0 mi Calm Calm - N/A   Overcast
7:33 AM 21.2 °F - 17.6 °F 86% 29.59 in 10.0 mi Calm Calm - N/A   Overcast
7:53 AM 21.2 °F - 17.6 °F 86% 29.60 in 7.0 mi Calm Calm - N/A Snow Light Snow
8:13 AM 21.2 °F - 17.6 °F 86% 29.60 in 10.0 mi Calm Calm - N/A   Overcast
8:33 AM 21.2 °F - 17.6 °F 86% 29.61 in 10.0 mi Calm Calm - N/A   Overcast
8:53 AM 21.2 °F - 17.6 °F 86% 29.60 in 10.0 mi Calm Calm - N/A   Overcast
9:13 AM 21.2 °F - 17.6 °F 86% 29.61 in 10.0 mi Calm Calm - N/A   Overcast
9:33 AM 21.2 °F - 17.6 °F 86% 29.61 in 10.0 mi Calm Calm - N/A   Overcast
9:53 AM 21.2 °F 14.9 °F 17.6 °F 86% 29.62 in 10.0 mi NE 4.6 mph - N/A   Overcast
10:13 AM 23.0 °F - 17.6 °F 80% 29.62 in 10.0 mi Calm Calm - N/A   Overcast
10:33 AM 24.8 °F - 17.6 °F 74% 29.62 in 10.0 mi Calm Calm - N/A   Overcast
10:53 AM 24.8 °F - 17.6 °F 74% 29.62 in 10.0 mi Calm Calm - N/A   Overcast
11:13 AM 24.8 °F 19.1 °F 17.6 °F 74% 29.62 in 10.0 mi NNE 4.6 mph - N/A   Overcast
11:33 AM 24.8 °F 20.5 °F 17.6 °F 74% 29.62 in 10.0 mi NNE 3.5 mph - N/A   Overcast
11:53 AM 26.6 °F - 17.6 °F 69% 29.63 in 10.0 mi Calm Calm - N/A   Overcast
12:13 PM 26.6 °F 22.6 °F 17.6 °F 69% 29.63 in 10.0 mi North 3.5 mph - N/A   Overcast
12:33 PM 26.6 °F 21.2 °F 17.6 °F 69% 29.63 in 10.0 mi NNE 4.6 mph - N/A   Overcast
12:53 PM 28.4 °F 22.2 °F 19.4 °F 69% 29.63 in 10.0 mi NNE 5.8 mph - N/A   Overcast
1:13 PM 28.4 °F - 19.4 °F 69% 29.63 in 10.0 mi Calm Calm - N/A   Overcast
1:33 PM 30.2 °F 24.3 °F 19.4 °F 64% 29.63 in 10.0 mi North 5.8 mph - N/A   Overcast
1:53 PM 30.2 °F 24.3 °F 19.4 °F 64% 29.63 in 10.0 mi NE 5.8 mph - N/A   Overcast
2:13 PM 30.2 °F 24.3 °F 19.4 °F 64% 29.63 in 10.0 mi NNE 5.8 mph - N/A   Overcast
2:33 PM 30.2 °F - 19.4 °F 64% 29.63 in 10.0 mi Calm Calm - N/A   Overcast
2:53 PM 30.2 °F 26.7 °F 19.4 °F 64% 29.63 in 10.0 mi NNE 3.5 mph - N/A   Overcast
3:13 PM 30.2 °F 25.4 °F 19.4 °F 64% 29.64 in 10.0 mi ENE 4.6 mph - N/A   Overcast
3:33 PM 30.2 °F 26.7 °F 19.4 °F 64% 29.63 in 10.0 mi NNE 3.5 mph - N/A   Overcast
3:53 PM 30.2 °F 24.3 °F 19.4 °F 64% 29.64 in 10.0 mi North 5.8 mph - N/A   Overcast
4:13 PM 30.2 °F 25.4 °F 19.4 °F 64% 29.64 in 10.0 mi NNW 4.6 mph - N/A   Overcast
4:33 PM 30.2 °F 24.3 °F 19.4 °F 64% 29.64 in 10.0 mi NW 5.8 mph - N/A   Overcast
4:53 PM 28.4 °F 22.2 °F 19.4 °F 69% 29.64 in 10.0 mi North 5.8 mph - N/A   Overcast
5:13 PM 30.2 °F 24.3 °F 19.4 °F 64% 29.65 in 10.0 mi North 5.8 mph - N/A   Overcast
5:33 PM 28.4 °F - 17.6 °F 64% 29.66 in 10.0 mi Calm Calm - N/A   Overcast
5:53 PM 28.4 °F 24.6 °F 17.6 °F 64% 29.66 in 10.0 mi NNE 3.5 mph - N/A   Overcast
6:13 PM 28.4 °F 24.6 °F 17.6 °F 64% 29.67 in 10.0 mi North 3.5 mph - N/A   Overcast
6:33 PM 28.4 °F 23.3 °F 17.6 °F 64% 29.67 in 10.0 mi North 4.6 mph - N/A   Overcast
6:53 PM 28.4 °F - 17.6 °F 64% 29.68 in 10.0 mi Calm Calm - N/A   Overcast
7:13 PM 28.4 °F - 17.6 °F 64% 29.69 in 10.0 mi Calm Calm - N/A   Overcast
7:33 PM 28.4 °F 23.3 °F 17.6 °F 64% 29.69 in 10.0 mi North 4.6 mph - N/A   Overcast
7:53 PM 28.4 °F - 17.6 °F 64% 29.70 in 10.0 mi Calm Calm - N/A   Overcast
8:13 PM 28.4 °F 23.3 °F 15.8 °F 59% 29.70 in 10.0 mi North 4.6 mph - N/A   Overcast
8:33 PM 28.4 °F - 15.8 °F 59% 29.71 in 10.0 mi Calm Calm - N/A   Overcast
8:53 PM 28.4 °F - 15.8 °F 59% 29.71 in 10.0 mi Calm Calm - N/A   Overcast
9:13 PM 28.4 °F - 17.6 °F 64% 29.72 in 10.0 mi Calm Calm - N/A   Overcast
9:33 PM 26.6 °F - 17.6 °F 69% 29.73 in 10.0 mi Calm Calm - N/A   Overcast
9:53 PM 26.6 °F - 15.8 °F 64% 29.74 in 10.0 mi Calm Calm - N/A   Mostly Cloudy
10:13 PM 24.8 °F - 15.8 °F 69% 29.74 in 10.0 mi Calm Calm - N/A   Clear
10:33 PM 21.2 °F - 15.8 °F 80% 29.75 in 10.0 mi Calm Calm - N/A   Clear
10:53 PM 21.2 °F - 15.8 °F 80% 29.75 in 10.0 mi Calm Calm - N/A   Clear
11:13 PM 19.4 °F - 14.0 °F 80% 29.76 in 10.0 mi Calm Calm - N/A   Clear
11:33 PM 19.4 °F - 14.0 °F 80% 29.76 in 10.0 mi Calm Calm - N/A   Clear
11:53 PM 17.6 °F 12.3 °F 12.2 °F 79% 29.77 in 10.0 mi NW 3.5 mph - N/A   Clear